FW0887 Weather Reports


time (UTC)temp
C
wind
direction
speed
KPH
gust
KPH
rain 1hr
cm
rain 24hr
cm
rain mn
cm
humidity
%
barometer
mb
20260505030052 14 52 0.0 3.2 0.00 0.00 0.00 75 1008.5
20260505024552 14 52 0.0 3.2 0.00 0.00 0.00 75 1008.6
20260505023105 14 52 0.0 3.2 0.00 0.00 0.00 75 1008.9
20260505021845 14 45 1.6 3.2 0.00 0.00 0.00 75 1010.5
20260505021548 14 52 0.0 3.2 0.00 0.00 0.00 75 1008.9
20260505020047 14 51 1.6 4.8 0.00 0.00 0.00 75 1009.0
20260505014546 14 198 0.0 0.0 0.00 0.00 0.00 75 1009.2
20260505013052 15 198 1.6 3.2 0.00 0.00 0.00 74 1009.3
20260505012007 15 0.0 0.0 0.00 0.00 0.00 71 1010.5
20260505011541 15 205 1.6 6.4 0.00 0.00 0.00 73 1009.2
20260505010038 15 329 0.0 4.8 0.00 0.00 0.00 71 1009.0
20260505004546 15 75 0.0 1.6 0.00 0.00 0.00 69 1009.2
20260505003035 15 75 0.0 1.6 0.00 0.00 0.00 67 1009.3
20260505001946 16 0.0 0.0 0.00 0.00 0.00 67 1011.0
20260505001533 15 75 0.0 1.6 0.00 0.00 0.00 67 1009.5
20260505000047 15 76 0.0 0.0 0.00 0.00 0.00 67 1009.6
20260504234530 15 76 0.0 0.0 0.00 0.00 0.00 67 1009.7
20260504233028 16 76 0.0 3.2 0.00 0.00 0.00 67 1009.8
20260504231857 16 0.0 0.0 0.00 0.00 0.00 64 1011.4
20260504231530 16 76 0.0 1.6 0.00 0.00 0.00 67 1009.9
20260504230025 16 76 0.0 3.2 0.00 0.00 0.00 64 1010.0
20260504224522 16 76 0.0 0.0 0.00 0.00 0.00 65 1010.1
20260504223022 16 76 0.0 0.0 0.00 0.00 0.00 64 1010.2
20260504221933 16 0.0 0.0 0.00 0.00 0.00 64 1011.7
20260504221520 16 76 0.0 0.0 0.00 0.00 0.00 64 1010.3
20260504220019 16 76 0.0 0.0 0.00 0.00 0.00 64 1010.3
20260504214519 16 76 0.0 0.0 0.00 0.00 0.00 64 1010.3
20260504213018 16 76 0.0 0.0 0.00 0.00 0.00 64 1010.4
20260504211908 17 0.0 0.0 0.00 0.00 0.00 63 1011.7
20260504211518 16 76 0.0 0.0 0.00 0.00 0.00 64 1010.4
20260504210022 16 77 0.0 0.0 0.00 0.00 0.00 62 1010.5
20260504204517 17 77 0.0 0.0 0.00 0.00 0.00 61 1010.6
20260504203016 17 77 0.0 0.0 0.00 0.00 0.00 63 1010.6
20260504201840 18 0.0 0.0 0.00 0.00 0.00 58 1011.9
20260504201515 17 77 0.0 0.0 0.00 0.00 0.00 60 1010.7
20260504200015 17 77 0.0 0.0 0.00 0.00 0.00 57 1010.6
20260504194515 18 76 0.0 0.0 0.00 0.00 0.00 57 1010.6
20260504193015 18 76 0.0 0.0 0.00 0.00 0.00 56 1010.6
20260504191823 19 0.0 1.6 0.00 0.00 0.00 54 1011.8
20260504191514 18 76 0.0 1.6 0.00 0.00 0.00 55 1010.5
20260504190014 18 76 3.2 4.8 0.00 0.00 0.00 53 1010.5
20260504184515 19 27 0.0 1.6 0.00 0.00 0.00 55 1010.4
20260504183013 20 27 0.0 3.2 0.00 0.00 0.00 53 1010.4
20260504181919 20 23 1.6 3.2 0.00 0.00 0.00 51 1011.5
20260504181512 20 27 0.0 3.2 0.00 0.00 0.00 52 1010.4
20260504180012 21 27 0.0 3.2 0.00 0.00 0.00 50 1010.4
20260504174511 21 321 0.0 3.2 0.00 0.00 0.00 45 1010.3
20260504173010 21 321 0.0 3.2 0.00 0.00 0.00 43 1010.4
20260504172012 22 315 1.6 3.2 0.00 0.00 0.00 41 1011.9
20260504171508 21 321 0.0 4.8 0.00 0.00 0.00 43 1010.5
20260504081548 19 248 3.2 4.8 0.00 0.00 0.00 56 1015.7
20260504081509 19 250 0.0 6.4 0.00 0.00 0.00 54 1014.3
20260504044540 13 209 0.0 1.6 0.00 0.00 0.00 69 1013.8
20260504043041 13 209 0.0 0.0 0.00 0.00 0.00 69 1013.8
20260504041543 14 203 1.6 1.6 0.00 0.00 0.00 69 1015.3
20260504041539 13 209 0.0 1.6 0.00 0.00 0.00 68 1013.6
20260504040044 13 209 0.0 0.0 0.00 0.00 0.00 68 1013.7
20260504034542 13 208 0.0 1.6 0.00 0.00 0.00 67 1013.8
20260504033039 14 209 0.0 1.6 0.00 0.00 0.00 67 1014.0
20260504031833 14 0.0 0.0 0.00 0.00 0.00 67 1015.7
20260504031543 14 208 0.0 3.2 0.00 0.00 0.00 66 1013.9